• In Uzbekistan
  • List of Countries
  • For 7 days
  • Water Temperature
  • Satellite Maps
  • Weather Map
  • Weather Widgets
  • user-avatar
    Login

    Hourly Weather Mansa

    Today, 18 January, Thursday

    Time Temperature Precipitation Wind Pressure Humidity
    00:00 +17°C° 0.1 mm 0 mps 658 mmHg 95%
    01:00 +17°C° 0.1 mm 0 mps 658 mmHg 95%
    02:00 +17°C° 0.1 mm 0 mps 658 mmHg 95%
    03:00 +17°C° 0.2 mm 0 mps 658 mmHg 96%
    04:00 +16°C° 0.2 mm 0 mps 658 mmHg 96%
    05:00 +16°C° 0.2 mm 0 mps 658 mmHg 96%
    06:00 +17°C° 0.2 mm 0 mps 658 mmHg 96%
    07:00 +18°C° 0.2 mm 0 mps 658 mmHg 95%
    08:00 +18°C° 0.2 mm 0 mps 659 mmHg 94%
    09:00 +19°C° 0.3 mm 0 mps 659 mmHg 92%
    10:00 +22°C° 0.3 mm 1 mps 659 mmHg 90%
    11:00 +23°C° 0.3 mm 1 mps 659 mmHg 88%
    12:00 +24°C° 0.4 mm 1 mps 659 mmHg 82%
    13:00 +26°C° 0.4 mm 1 mps 659 mmHg 77%
    14:00 +26°C° 0.4 mm 0 mps 659 mmHg 71%
    15:00 +27°C° 1.1 mm 1 mps 658 mmHg 75%
    16:00 +26°C° 1.1 mm 1 mps 657 mmHg 79%
    17:00 +26°C° 1.1 mm 1 mps 657 mmHg 82%
    18:00 +24°C° 2.5 mm 1 mps 657 mmHg 86%
    19:00 +23°C° 2.5 mm 1 mps 657 mmHg 90%
    20:00 +21°C° 2.5 mm 1 mps 657 mmHg 94%
    21:00 +21°C° 2.3 mm 1 mps 657 mmHg 94%
    22:00 +21°C° 2.3 mm 1 mps 658 mmHg 95%
    23:00 +20°C° 2.3 mm 1 mps 658 mmHg 95%

    Tomorrow, 19 January, Friday

    Time Temperature Precipitation Wind Pressure Humidity
    00:00 +20°C° 1.2 mm 1 mps 658 mmHg 96%
    01:00 +20°C° 1.2 mm 1 mps 658 mmHg 97%
    02:00 +20°C° 1.2 mm 1 mps 657 mmHg 97%
    03:00 +19°C° 0.6 mm 1 mps 657 mmHg 97%
    04:00 +19°C° 0.6 mm 1 mps 657 mmHg 97%
    05:00 +19°C° 0.6 mm 1 mps 657 mmHg 97%
    06:00 +20°C° 0.2 mm 1 mps 658 mmHg 96%
    07:00 +20°C° 0.2 mm 1 mps 658 mmHg 95%
    08:00 +21°C° 0.2 mm 1 mps 659 mmHg 94%
    09:00 +22°C° 0.8 mm 1 mps 659 mmHg 93%
    10:00 +22°C° 0.8 mm 1 mps 659 mmHg 91%
    11:00 +23°C° 0.8 mm 2 mps 659 mmHg 90%
    12:00 +23°C° 1.2 mm 2 mps 659 mmHg 90%
    13:00 +23°C° 1.2 mm 2 mps 658 mmHg 90%
    14:00 +23°C° 1.2 mm 2 mps 658 mmHg 90%
    15:00 +23°C° 0.9 mm 2 mps 657 mmHg 91%
    16:00 +23°C° 0.9 mm 2 mps 657 mmHg 91%
    17:00 +23°C° 0.9 mm 2 mps 657 mmHg 92%
    18:00 +21°C° 0.4 mm 2 mps 657 mmHg 94%
    19:00 +21°C° 0.4 mm 1 mps 658 mmHg 95%
    20:00 +20°C° 0.4 mm 1 mps 658 mmHg 96%
    21:00 +20°C° 0.4 mm 1 mps 658 mmHg 96%
    22:00 +20°C° 0.4 mm 1 mps 659 mmHg 97%
    23:00 +20°C° 0.4 mm 1 mps 659 mmHg 97%

    Day after tomorrow, 20 January, Saturday

    Time Temperature Precipitation Wind Pressure Humidity
    00:00 +20°C° 0.4 mm 1 mps 659 mmHg 97%
    01:00 +19°C° 0.4 mm 1 mps 658 mmHg 97%
    02:00 +19°C° 0.4 mm 1 mps 658 mmHg 97%
    03:00 +19°C° 0.2 mm 1 mps 658 mmHg 97%
    04:00 +19°C° 0.2 mm 1 mps 658 mmHg 97%
    05:00 +19°C° 0.2 mm 1 mps 658 mmHg 97%
    06:00 +19°C° 0.2 mm 1 mps 658 mmHg 97%
    07:00 +19°C° 0.2 mm 1 mps 659 mmHg 97%
    08:00 +19°C° 0.2 mm 1 mps 660 mmHg 96%
    09:00 +20°C° 0.1 mm 1 mps 660 mmHg 95%
    10:00 +20°C° 0.1 mm 1 mps 660 mmHg 94%
    11:00 +20°C° 0.1 mm 2 mps 660 mmHg 92%
    12:00 +20°C° 0.4 mm 2 mps 660 mmHg 91%
    13:00 +20°C° 0.4 mm 2 mps 659 mmHg 90%
    14:00 +21°C° 0.4 mm 2 mps 658 mmHg 89%
    15:00 +22°C° 0.2 mm 1 mps 658 mmHg 88%
    16:00 +22°C° 0.2 mm 1 mps 658 mmHg 87%
    17:00 +22°C° 0.2 mm 1 mps 657 mmHg 86%
    18:00 +21°C° 0 mm 1 mps 658 mmHg 87%
    19:00 +18°C° 0 mm 0 mps 658 mmHg 88%
    20:00 +18°C° 0 mm 0 mps 658 mmHg 89%
    21:00 +17°C° 0 mm 0 mps 659 mmHg 90%
    22:00 +17°C° 0 mm 0 mps 659 mmHg 91%
    23:00 +17°C° 0 mm 0 mps 659 mmHg 91%

    21 January, Sunday

    Time Temperature Precipitation Wind Pressure Humidity
    00:00 +17°C° 0.4 mm 0 mps 659 mmHg 92%
    01:00 +17°C° 0.4 mm 0 mps 658 mmHg 94%
    02:00 +17°C° 0.4 mm 0 mps 658 mmHg 95%
    03:00 +17°C° 0.6 mm 0 mps 658 mmHg 95%
    04:00 +17°C° 0.6 mm 0 mps 658 mmHg 96%
    05:00 +17°C° 0.6 mm 0 mps 658 mmHg 96%
    06:00 +17°C° 0.5 mm 0 mps 659 mmHg 96%
    07:00 +18°C° 0.5 mm 0 mps 659 mmHg 96%
    08:00 +18°C° 0.5 mm 0 mps 660 mmHg 95%
    09:00 +19°C° 0.5 mm 0 mps 660 mmHg 92%
    10:00 +23°C° 0.5 mm 1 mps 660 mmHg 89%
    11:00 +24°C° 0.5 mm 1 mps 660 mmHg 85%
    12:00 +25°C° 0.6 mm 1 mps 659 mmHg 80%
    13:00 +26°C° 0.6 mm 1 mps 659 mmHg 75%
    14:00 +27°C° 0.6 mm 1 mps 658 mmHg 70%
    15:00 +26°C° 0.8 mm 1 mps 658 mmHg 73%
    16:00 +26°C° 0.8 mm 1 mps 657 mmHg 77%
    17:00 +26°C° 0.8 mm 1 mps 657 mmHg 81%
    18:00 +24°C° 1.4 mm 1 mps 657 mmHg 85%
    19:00 +22°C° 1.4 mm 1 mps 657 mmHg 88%
    20:00 +21°C° 1.4 mm 1 mps 658 mmHg 92%
    21:00 +21°C° 1.2 mm 1 mps 658 mmHg 93%
    22:00 +20°C° 1.2 mm 1 mps 658 mmHg 94%
    23:00 +20°C° 1.2 mm 1 mps 658 mmHg 94%

    22 January, Monday

    Time Temperature Precipitation Wind Pressure Humidity
    00:00 +20°C° 2.3 mm 1 mps 658 mmHg 95%
    01:00 +20°C° 2.3 mm 1 mps 657 mmHg 96%
    02:00 +20°C° 2.3 mm 1 mps 657 mmHg 96%
    03:00 +20°C° 2.1 mm 1 mps 657 mmHg 96%
    04:00 +20°C° 2.1 mm 1 mps 657 mmHg 97%
    05:00 +19°C° 2.1 mm 1 mps 657 mmHg 97%
    06:00 +19°C° 1.2 mm 1 mps 658 mmHg 97%
    07:00 +20°C° 1.2 mm 1 mps 659 mmHg 97%
    08:00 +20°C° 1.2 mm 1 mps 659 mmHg 97%
    09:00 +20°C° 1.2 mm 1 mps 659 mmHg 96%
    10:00 +19°C° 1.2 mm 2 mps 659 mmHg 96%
    11:00 +19°C° 1.2 mm 2 mps 659 mmHg 95%
    12:00 +20°C° 0.4 mm 2 mps 658 mmHg 92%
    13:00 +21°C° 0.4 mm 2 mps 657 mmHg 89%
    14:00 +23°C° 0.4 mm 2 mps 657 mmHg 87%
    15:00 +23°C° 0.1 mm 2 mps 657 mmHg 86%
    16:00 +23°C° 0.1 mm 2 mps 657 mmHg 86%
    17:00 +23°C° 0.1 mm 1 mps 657 mmHg 86%
    18:00 +22°C° 0.3 mm 1 mps 657 mmHg 90%
    19:00 +21°C° 0.3 mm 1 mps 657 mmHg 93%
    20:00 +20°C° 0.3 mm 1 mps 657 mmHg 96%
    21:00 +20°C° 0.1 mm 1 mps 657 mmHg 97%
    22:00 +19°C° 0.1 mm 1 mps 657 mmHg 97%
    23:00 +19°C° 0.1 mm 1 mps 658 mmHg 97%

    23 January, Tuesday

    Time Temperature Precipitation Wind Pressure Humidity
    00:00 +19°C° 0.1 mm 1 mps 657 mmHg 97%
    01:00 +19°C° 0.1 mm 1 mps 657 mmHg 97%
    02:00 +18°C° 0.1 mm 1 mps 656 mmHg 97%
    03:00 +18°C° 0.1 mm 1 mps 657 mmHg 97%
    04:00 +18°C° 0.1 mm 1 mps 657 mmHg 97%
    05:00 +18°C° 0.1 mm 1 mps 657 mmHg 97%
    06:00 +19°C° 0.2 mm 1 mps 658 mmHg 96%
    07:00 +18°C° 0.2 mm 2 mps 658 mmHg 96%
    08:00 +19°C° 0.2 mm 2 mps 658 mmHg 95%
    09:00 +19°C° 0.4 mm 2 mps 658 mmHg 93%
    10:00 +20°C° 0.4 mm 2 mps 658 mmHg 91%
    11:00 +21°C° 0.4 mm 2 mps 658 mmHg 89%
    12:00 +21°C° 0.5 mm 2 mps 658 mmHg 88%
    13:00 +23°C° 0.5 mm 2 mps 657 mmHg 87%
    14:00 +24°C° 0.5 mm 3 mps 657 mmHg 86%
    15:00 +23°C° 0.5 mm 2 mps 657 mmHg 87%
    16:00 +23°C° 0.5 mm 2 mps 657 mmHg 89%
    17:00 +21°C° 0.5 mm 2 mps 656 mmHg 91%
    18:00 +21°C° 0.6 mm 2 mps 657 mmHg 93%
    19:00 +20°C° 0.6 mm 2 mps 657 mmHg 94%
    20:00 +19°C° 0.6 mm 2 mps 657 mmHg 96%
    21:00 +20°C° 0.4 mm 1 mps 658 mmHg 96%
    22:00 +19°C° 0.4 mm 1 mps 658 mmHg 97%
    23:00 +19°C° 0.4 mm 1 mps 658 mmHg 97%
    Show more